Location: Acton
(51.4942°N, 0.2232°W)
Time: 23:20:56
(UTC+00:00)

MOS 1 Rocket - Pass Details

Date: 18 September 2020
Orbit: 614 x 831 km, 97.4° (Epoch: 30 October)

Event Time Altitude Azimuth Distance (km) Brightness Sun altitude
Rises 18:56:19 0° 16° (NNE) 3,050 6.6 -8.3°
Reaches altitude 10° 18:58:40 10° 22° (NNE) 2,099 5.7 -8.7°
Maximum altitude 19:03:07 51° 99° (E) 808 3.3 -9.4°
Drops below altitude 10° 19:07:20 10° 176° (S) 1,995 5.5 -10.0°
Sets 19:09:32 0° 181° (S) 2,883 6.3 -10.3°
